Aviation Digital Data Service (ADDS)

Output produced by METARs form (1541 UTC 26 September 2021)
found at http://www.aviationweather.gov/metar/data/
 
METAR text: KFAT 261453Z 33003KT 10SM SCT200 17/11 A2998 RMK AO2 SLP147 T01720111 51013
Conditions at: KFAT (FRESNO , CA, US) observed 1453 UTC 26 September 2021
Temperature: 17.2°C (63°F)
Dewpoint: 11.1°C (52°F) [RH = 67%]
Pressure (altimeter): 29.98 inches Hg (1015.3 mb)
[Sea-level pressure: 1014.7 mb]
Winds: from the NNW (330 degrees) at 3 MPH (3 knots; 1.5 m/s)
Visibility: 10 or more miles (16+ km)
Ceiling: at least 12,000 feet AGL
Clouds: scattered clouds at 20000 feet AGL
Weather: no significant weather observed at this time

Forecast for: KFAT (FRESNO , CA, US)
Text: KFAT 261120Z 2612/2712 VRB03KT 6SM HZ FU BKN017
Forecast period: 1200 UTC 26 September 2021 to 0000 UTC 27 September 2021
Forecast type: FROM: standard forecast or significant change
Winds: variable direction winds at 3 MPH (3 knots; 1.5 m/s)
Visibility: 6 miles (10 km)
Ceiling: 1700 feet AGL
Clouds: broken clouds at 1700 feet AGL
Weather: HZ FU  (haze, smoke)
Text: FM270000 31009KT P6SM BKN250
Forecast period: 0000 to 1200 UTC 27 September 2021
Forecast type: FROM: standard forecast or significant change
Winds: from the NW (310 degrees) at 10 MPH (9 knots; 4.6 m/s)
Visibility: 6 or more miles (10+ km)
Ceiling: 25000 feet AGL
Clouds: broken clouds at 25000 feet AGL
Weather: no significant weather forecast for this period